• Em Portugal
  • Lista de países
  • Para 7 dias
  • Temperatura da água
  • Mapas de satélite
  • Mapa do tempo
  • Widgets de tempo
  • user-avatar
    Iniciar Sessão

    Previsão horária em Czerna

    Hoje, 25 Setembro, Terça-feira

    Tempo Temperatura Precipitação Vento Pressão Humidade
    00:00 +5°C° 0 mm 4 m/s 753 mmHg 84%
    01:00 +4°C° 0 mm 3 m/s 754 mmHg 88%
    02:00 +4°C° 0 mm 3 m/s 754 mmHg 88%
    03:00 +3°C° 0 mm 4 m/s 754 mmHg 88%
    04:00 +3°C° 0 mm 4 m/s 755 mmHg 87%
    05:00 +3°C° 0 mm 4 m/s 755 mmHg 87%
    06:00 +3°C° 0 mm 4 m/s 756 mmHg 86%
    07:00 +4°C° 0 mm 4 m/s 756 mmHg 84%
    08:00 +5°C° 0 mm 4 m/s 757 mmHg 77%
    09:00 +7°C° 0 mm 4 m/s 757 mmHg 71%
    10:00 +8°C° 0 mm 4 m/s 757 mmHg 65%
    11:00 +10°C° 0 mm 4 m/s 758 mmHg 60%
    12:00 +11°C° 0 mm 4 m/s 758 mmHg 55%
    13:00 +12°C° 0 mm 4 m/s 758 mmHg 50%
    14:00 +12°C° 0 mm 4 m/s 758 mmHg 50%
    15:00 +12°C° 0 mm 4 m/s 758 mmHg 50%
    16:00 +12°C° 0 mm 4 m/s 758 mmHg 50%
    17:00 +10°C° 0 mm 3 m/s 758 mmHg 57%
    18:00 +9°C° 0 mm 2 m/s 758 mmHg 63%
    19:00 +7°C° 0 mm 2 m/s 758 mmHg 69%
    20:00 +7°C° 0 mm 2 m/s 759 mmHg 71%
    21:00 +6°C° 0 mm 2 m/s 759 mmHg 72%
    22:00 +6°C° 0 mm 2 m/s 760 mmHg 74%
    23:00 +6°C° 0 mm 2 m/s 760 mmHg 74%

    Amanhã, 26 Setembro, Quarta-feira

    Tempo Temperatura Precipitação Vento Pressão Humidade
    00:00 +5°C° 0 mm 2 m/s 760 mmHg 75%
    01:00 +5°C° 0 mm 2 m/s 759 mmHg 75%
    02:00 +5°C° 0 mm 2 m/s 759 mmHg 76%
    03:00 +5°C° 0 mm 2 m/s 759 mmHg 76%
    04:00 +4°C° 0 mm 2 m/s 759 mmHg 76%
    05:00 +5°C° 0 mm 2 m/s 759 mmHg 74%
    06:00 +5°C° 0 mm 2 m/s 759 mmHg 72%
    07:00 +5°C° 0 mm 3 m/s 759 mmHg 70%
    08:00 +8°C° 0 mm 3 m/s 759 mmHg 63%
    09:00 +10°C° 0 mm 4 m/s 758 mmHg 55%
    10:00 +12°C° 0 mm 4 m/s 758 mmHg 47%
    11:00 +13°C° 0 mm 4 m/s 758 mmHg 44%
    12:00 +14°C° 0 mm 4 m/s 757 mmHg 41%
    13:00 +15°C° 0 mm 5 m/s 756 mmHg 38%
    14:00 +15°C° 0 mm 4 m/s 756 mmHg 39%
    15:00 +15°C° 0 mm 4 m/s 755 mmHg 40%
    16:00 +15°C° 0 mm 4 m/s 755 mmHg 41%
    17:00 +14°C° 0 mm 4 m/s 755 mmHg 44%
    18:00 +12°C° 0 mm 4 m/s 754 mmHg 47%
    19:00 +11°C° 0 mm 3 m/s 754 mmHg 50%
    20:00 +11°C° 0 mm 3 m/s 754 mmHg 50%
    21:00 +11°C° 0 mm 4 m/s 754 mmHg 51%
    22:00 +11°C° 0 mm 4 m/s 754 mmHg 51%
    23:00 +11°C° 0 mm 4 m/s 754 mmHg 52%

    Depois de amanhã, 27 Setembro, Quinta-feira

    Tempo Temperatura Precipitação Vento Pressão Humidade
    00:00 +11°C° 0 mm 4 m/s 754 mmHg 53%
    01:00 +10°C° 0 mm 4 m/s 754 mmHg 54%
    02:00 +10°C° 0 mm 4 m/s 754 mmHg 55%
    03:00 +10°C° 0 mm 4 m/s 754 mmHg 55%
    04:00 +10°C° 0 mm 4 m/s 754 mmHg 55%
    05:00 +10°C° 0 mm 4 m/s 754 mmHg 55%
    06:00 +11°C° 0 mm 4 m/s 754 mmHg 56%
    07:00 +11°C° 0 mm 4 m/s 754 mmHg 56%
    08:00 +13°C° 0 mm 4 m/s 754 mmHg 54%
    09:00 +15°C° 0 mm 4 m/s 754 mmHg 52%
    10:00 +18°C° 0 mm 4 m/s 754 mmHg 50%
    11:00 +19°C° 0 mm 4 m/s 753 mmHg 50%
    12:00 +20°C° 0 mm 4 m/s 753 mmHg 51%
    13:00 +21°C° 0 mm 4 m/s 753 mmHg 51%
    14:00 +21°C° 0 mm 4 m/s 752 mmHg 53%
    15:00 +21°C° 0 mm 3 m/s 752 mmHg 54%
    16:00 +21°C° 0 mm 3 m/s 751 mmHg 56%
    17:00 +19°C° 0 mm 3 m/s 751 mmHg 61%
    18:00 +18°C° 0 mm 2 m/s 751 mmHg 67%
    19:00 +16°C° 0 mm 2 m/s 750 mmHg 72%
    20:00 +16°C° 0 mm 2 m/s 750 mmHg 71%
    21:00 +15°C° 0 mm 2 m/s 750 mmHg 69%
    22:00 +15°C° 0 mm 2 m/s 749 mmHg 68%
    23:00 +13°C° 0 mm 3 m/s 749 mmHg 66%

    28 Setembro, Sexta-feira

    Tempo Temperatura Precipitação Vento Pressão Humidade
    00:00 +13°C° 0 mm 3 m/s 748 mmHg 65%
    01:00 +13°C° 0 mm 3 m/s 748 mmHg 64%
    02:00 +12°C° 0 mm 3 m/s 747 mmHg 64%
    03:00 +12°C° 0 mm 3 m/s 747 mmHg 64%
    04:00 +11°C° 0 mm 3 m/s 746 mmHg 65%
    05:00 +11°C° 0 mm 3 m/s 746 mmHg 65%
    06:00 +11°C° 0 mm 3 m/s 746 mmHg 65%
    07:00 +11°C° 0 mm 3 m/s 746 mmHg 65%
    08:00 +13°C° 0 mm 3 m/s 746 mmHg 61%
    09:00 +14°C° 0 mm 3 m/s 747 mmHg 58%
    10:00 +17°C° 0 mm 4 m/s 747 mmHg 54%
    11:00 +17°C° 0 mm 4 m/s 747 mmHg 54%
    12:00 +18°C° 0 mm 4 m/s 747 mmHg 54%
    13:00 +18°C° 0 mm 4 m/s 747 mmHg 55%
    14:00 +17°C° 0 mm 4 m/s 747 mmHg 59%
    15:00 +15°C° 0 mm 4 m/s 746 mmHg 63%
    16:00 +14°C° 0 mm 4 m/s 746 mmHg 68%
    17:00 +13°C° 0 mm 3 m/s 747 mmHg 72%
    18:00 +12°C° 0 mm 3 m/s 747 mmHg 77%
    19:00 +10°C° 0 mm 2 m/s 747 mmHg 81%
    20:00 +10°C° 0 mm 2 m/s 748 mmHg 81%
    21:00 +9°C° 0 mm 2 m/s 748 mmHg 82%
    22:00 +9°C° 0 mm 2 m/s 749 mmHg 82%
    23:00 +8°C° 0 mm 2 m/s 749 mmHg 83%

    29 Setembro, Sábado

    Tempo Temperatura Precipitação Vento Pressão Humidade
    00:00 +8°C° 0 mm 2 m/s 749 mmHg 83%
    01:00 +9°C° 0 mm 1 m/s 749 mmHg 84%
    02:00 +8°C° 0 mm 1 m/s 749 mmHg 86%
    03:00 +7°C° 0 mm 1 m/s 750 mmHg 87%
    04:00 +7°C° 0 mm 1 m/s 750 mmHg 89%
    05:00 +7°C° 0 mm 1 m/s 750 mmHg 87%
    06:00 +7°C° 0 mm 1 m/s 751 mmHg 86%
    07:00 +7°C° 0 mm 1 m/s 751 mmHg 84%
    08:00 +9°C° 0 mm 1 m/s 752 mmHg 74%
    09:00 +10°C° 0 mm 2 m/s 752 mmHg 64%
    10:00 +13°C° 0 mm 2 m/s 752 mmHg 53%
    11:00 +14°C° 0 mm 2 m/s 752 mmHg 49%
    12:00 +14°C° 0 mm 2 m/s 752 mmHg 45%
    13:00 +15°C° 0 mm 2 m/s 752 mmHg 41%
    14:00 +15°C° 0 mm 2 m/s 752 mmHg 42%
    15:00 +15°C° 0 mm 2 m/s 752 mmHg 42%
    16:00 +14°C° 0 mm 2 m/s 751 mmHg 43%
    17:00 +13°C° 0 mm 2 m/s 752 mmHg 49%
    18:00 +10°C° 0 mm 2 m/s 752 mmHg 54%
    19:00 +9°C° 0 mm 1 m/s 752 mmHg 60%
    20:00 +8°C° 0 mm 2 m/s 752 mmHg 62%
    21:00 +8°C° 0 mm 2 m/s 752 mmHg 64%
    22:00 +7°C° 0 mm 2 m/s 752 mmHg 66%
    23:00 +7°C° 0 mm 2 m/s 752 mmHg 68%

    30 Setembro, Domingo

    Tempo Temperatura Precipitação Vento Pressão Humidade
    00:00 +6°C° 0 mm 2 m/s 752 mmHg 69%
    01:00 +6°C° 0 mm 2 m/s 751 mmHg 70%
    02:00 +6°C° 0 mm 2 m/s 751 mmHg 71%
    03:00 +6°C° 0 mm 2 m/s 751 mmHg 72%
    04:00 +5°C° 0 mm 2 m/s 751 mmHg 72%
    05:00 +6°C° 0 mm 2 m/s 750 mmHg 72%
    06:00 +6°C° 0 mm 2 m/s 750 mmHg 72%
    07:00 +6°C° 0 mm 2 m/s 750 mmHg 71%
    08:00 +8°C° 0 mm 2 m/s 750 mmHg 64%
    09:00 +10°C° 0 mm 2 m/s 750 mmHg 56%
    10:00 +12°C° 0 mm 3 m/s 750 mmHg 49%
    11:00 +13°C° 0 mm 3 m/s 749 mmHg 45%
    12:00 +14°C° 0 mm 3 m/s 748 mmHg 42%
    13:00 +16°C° 0 mm 3 m/s 748 mmHg 39%
    14:00 +16°C° 0 mm 3 m/s 747 mmHg 40%
    15:00 +16°C° 0 mm 3 m/s 747 mmHg 41%
    16:00 +16°C° 0 mm 2 m/s 746 mmHg 43%
    17:00 +14°C° 0 mm 2 m/s 746 mmHg 50%
    18:00 +12°C° 0 mm 2 m/s 746 mmHg 57%
    19:00 +9°C° 0 mm 2 m/s 745 mmHg 63%
    20:00 +9°C° 0 mm 2 m/s 745 mmHg 65%
    21:00 +8°C° 0 mm 2 m/s 745 mmHg 66%
    22:00 +9°C° 0 mm 1 m/s 745 mmHg 67%
    23:00 +9°C° 0 mm 1 m/s 744 mmHg 68%
    Mostrar mais